• Join FlightAware (Why Join?)
  • Login
  • US Flag 
08:28AM EDT


 

Airport Tracker/Info


-or-


 

Live Flight TrackerFlight Track Log ✈ UAL4849 ✈ 19-Apr-2013 ✈ KROC - KEWR

Flight Track Log - Related Links

Times and Time Zones

All times are in EDT time to prevent confusion due to time zone crossing. See the UAL4849 flight status page for this flight to view local times or setup timezone preferences in your user account.

Time Position Orientation Groundspeed Altitude Reporting Facility
EDT Latitude Longitude Course Direction KTS MPH feet Rate Location/Type
10:29AM 43.1036 -77.6914 207° Southwest 129 148 1,100  Level Cleveland Center
10:29AM 43.0911 -77.7003 207° Southwest 124 143 1,900 1,380 Climbing Cleveland Center
10:30AM 43.0675 -77.6731 140° Southeast 141 162 3,100 1,200 Climbing Cleveland Center
10:31AM 43.0478 -77.6286 121° Southeast 141 162 4,400 1,140 Climbing Cleveland Center
10:32AM 43.0233 -77.5728 121° Southeast 176 203 5,500 1,200 Climbing Cleveland Center
10:33AM 43.0006 -77.5031 114° Southeast 174 200 7,000 1,380 Climbing Cleveland Center
10:34AM 42.9806 -77.4472 116° Southeast 174 200 8,500 1,380 Climbing Cleveland Center
10:35AM 42.9622 -77.3914 114° Southeast 169 194 9,800 1,140 Climbing Cleveland Center
10:36AM 42.9439 -77.3356 114° Southeast 164 189 10,800 960 Climbing Cleveland Center
10:38AM 42.9128 -77.2431 115° Southeast 163 188 12,400 840 Climbing New York Center
10:39AM 42.8911 -77.1814 116° Southeast 170 196 13,100 300 Climbing New York Center
10:40AM 42.8639 -77.1081 117° Southeast 192 221 13,100  Level New York Center
10:41AM 42.8331 -77.0231 116° Southeast 224 258 13,100  Level New York Center
10:42AM 42.8000 -76.9381 118° Southeast 242 278 13,100 -120 Level New York Center
10:43AM 42.7819 -76.9019 124° Southeast 250 288 13,000 -120 Descending Boston Center
10:44AM 42.7456 -76.8172 120° Southeast 255 293 13,000  Level Boston Center
10:45AM 42.7069 -76.7328 122° Southeast 260 299 13,000  Level Boston Center
10:46AM 42.6686 -76.6481 122° Southeast 260 299 13,000  Level Boston Center
10:47AM 42.6300 -76.5636 122° Southeast 260 299 13,000  Level Boston Center
10:48AM 42.5914 -76.4736 120° Southeast 265 305 13,000  Level Boston Center
10:49AM 42.5528 -76.3892 122° Southeast 265 305 13,000  Level Boston Center
10:50AM 42.5119 -76.3022 122° Southeast 265 305 13,000  Level Boston Center
10:51AM 42.4772 -76.2211 120° Southeast 270 311 13,000  Level Boston Center
10:52AM 42.4403 -76.1372 121° Southeast 270 311 13,000  Level Boston Center
10:53AM 42.3917 -76.0303 122° Southeast 287 330 13,000  Level Boston Center
10:54AM 42.3525 -75.9436 121° Southeast 281 323 13,000  Level Boston Center
10:55AM 42.3114 -75.8572 123° Southeast 281 323 13,000  Level Boston Center
10:56AM 42.2744 -75.7681 119° Southeast 281 323 13,000  Level Boston Center
10:57AM 42.2333 -75.6789 122° Southeast 281 323 13,000  Level Boston Center
10:58AM 42.1939 -75.5956 123° Southeast 281 323 13,000  Level Boston Center
10:59AM 42.1544 -75.5097 122° Southeast 281 323 13,000  Level Boston Center
11:00AM 42.1231 -75.4408 122° Southeast 276 318 13,100  Climbing Boston Center
11:01AM 42.0756 -75.3408 123° Southeast 270 311 13,100  Level Boston Center
11:02AM 42.0403 -75.2525 118° Southeast 270 311 13,100  Level Boston Center
11:03AM 42.0050 -75.1614 117° Southeast 270 311 13,100 -60 Level Boston Center
11:04AM 41.9697 -75.0706 118° Southeast 270 311 13,000 -60 Descending Boston Center
11:05AM 41.9422 -74.9969 117° Southeast 270 311 13,000 -120 Level Boston Center
11:06AM 41.9028 -74.8919 117° Southeast 270 311 12,800 -540 Descending Boston Center
11:07AM 41.8672 -74.7986 117° Southeast 275 316 11,900 -1,080 Descending Boston Center
11:08AM 41.8217 -74.6828 118° Southeast 282 325 10,500 -1,200 Descending Boston Center
11:09AM 41.7900 -74.6036 118° Southeast 282 325 9,500 -1,020 Descending Boston Center
11:10AM 41.7411 -74.5378 135° Southeast 231 266 8,500 -960 Descending Boston Center
11:11AM 41.6889 -74.5417 183° South 198 228 7,700 -840 Descending Boston Center
11:12AM 41.6303 -74.5536 189° South 198 228 6,900 -840 Descending Boston Center
11:13AM 41.5781 -74.5603 185° South 198 228 6,100 -360 Descending Boston Center
11:14AM 41.4833 -74.5833 190° South 201 231 6,000 -60 Descending New York TRACON
11:15AM 41.4333 -74.5833 180° South 193 222 6,000  Level New York TRACON
11:16AM 41.3833 -74.5667 166° South 214 246 6,000  Level New York TRACON
11:17AM 41.3333 -74.5167 143° Southeast 210 242 6,000 -360 Level New York TRACON
11:18AM 41.2833 -74.4667 143° Southeast 206 237 5,300 -540 Descending New York TRACON
11:19AM 41.2500 -74.4333 143° Southeast 195 224 5,000 -180 Descending New York TRACON
11:20AM 41.2000 -74.3833 143° Southeast 200 230 5,000  Level New York TRACON
11:21AM 41.1500 -74.3500 153° Southeast 201 231 5,100  Climbing New York TRACON
11:22AM 41.1000 -74.3000 143° Southeast 203 234 5,100 -60 Level New York TRACON
11:23AM 41.0667 -74.2667 143° Southeast 192 221 5,000 -360 Descending New York TRACON
11:24AM 41.0167 -74.2333 153° Southeast 174 200 4,400 -540 Descending New York TRACON
11:25AM 40.9833 -74.1833 131° Southeast 179 206 4,000 -300 Descending New York TRACON
11:26AM 40.9500 -74.1500 143° Southeast 168 193 3,900 -540 Descending New York TRACON
11:27AM 40.9167 -74.1000 131° Southeast 205 236 3,000 -480 Descending New York TRACON
11:28AM 40.8833 -74.0667 143° Southeast 170 196 3,100 -60 Climbing New York TRACON
11:29AM 40.8333 -74.0833 194° South 170 196 2,900 -540 Descending New York TRACON
11:30AM 40.7833 -74.1000 194° South 163 188 2,000 -900 Descending New York TRACON
11:31AM 40.7500 -74.1333 217° Southwest 159 183 1,200 -720 Descending New York TRACON
11:32AM 40.7167 -74.1500 201° Southwest 131 151 600 -600 Descending New York TRACON
11:34AM 40.6925 -74.1687 169° South  Level Estimated
11:41AM 40.6925 -74.1687 169° South  Level Estimated
11:42AM 40.6925 -74.1687 169° South  Level Estimated